Hamilton, OH

10:21 AM EDT on April 26, 2017 (GMT -0400)
Butler County Regional

Weather History for KHAO - November, 2012

Change the Weather History Date:

Thursday, November 22, 2012

  Actual Average (KLUK) Record (KLUK)
Temperature  
Mean Temperature 46 °F -  
Max Temperature 66 °F 50 °F 73 °F (2010)
Min Temperature 26 °F 32 °F 14 °F (1964)
Degree Days  
Heating Degree Days 19    
Moisture  
Dew Point 32 °F    
Average Humidity 79    
Maximum Humidity 96    
Minimum Humidity 37    
Precipitation  
Precipitation 0.00 in - - ()
Sea Level Pressure  
Sea Level Pressure 30.19 in    
Wind  
Wind Speed 1 mph (SSW)    
Max Wind Speed 12 mph    
Max Gust Speed 21 mph    
Visibility 5 miles    
Events Fog    
Averages and records for this station are not official NWS values.
T = Trace of Precipitation, MM = Missing Value Source: NWS Daily Summary

Daily Weather History Graph

Daily Weather History Graph

Search for Another Location

Airport or City:

Trip Planner

Search our weather history database for the weather conditions in past years. The results will help you decide how hot, cold, wet, or windy it might be!

Date:

Astronomy

Nov. 22, 2012 Rise Set
Actual Time 7:30 AM EST 5:18 PM EST
Civil Twilight 7:00 AM EST 5:47 PM EST
Nautical Twilight 6:28 AM EST 6:20 PM EST
Astronomical Twilight 5:55 AM EST 6:52 PM EST
Moon 2:02 PM EST (11/22) 1:50 AM EST (11/22)
Length of Visible Light 10h 46m
Length of Day
9h 48m
Waxing Gibbous, 71% of the Moon is Illuminated
Nov 22
Waxing Gibbous
Nov 28
Full
Dec 6
Last Quarter
Dec 13
New
Dec 20
First Quarter

Hourly Weather History & Observations

Time (EST) Temp. Dew Point Humidity Pressure Visibility Wind Dir Wind Speed Gust Speed Precip Events Conditions
12:53 AM 32.0 °F 30.0 °F 92% 30.23 in 6.0 mi Calm Calm - N/A   Clear
1:25 AM 30.2 °F 28.4 °F 93% 30.22 in 2.5 mi Calm Calm - N/A   Clear
1:34 AM 30.2 °F 28.4 °F 93% 30.22 in 5.0 mi Calm Calm - N/A   Clear
1:53 AM 30.0 °F 28.9 °F 96% 30.23 in 5.0 mi Calm Calm - N/A   Clear
2:22 AM 30.2 °F 28.4 °F 93% 30.23 in 2.5 mi Calm Calm - N/A   Clear
2:29 AM 30.2 °F 28.4 °F 93% 30.23 in 5.0 mi Calm Calm - N/A   Clear
2:53 AM 30.0 °F 28.0 °F 92% 30.24 in 4.0 mi Calm Calm - N/A   Clear
3:07 AM 30.2 °F 28.4 °F 93% 30.22 in 2.5 mi Calm Calm - N/A   Clear
3:14 AM 30.2 °F 26.6 °F 86% 30.22 in 5.0 mi Calm Calm - N/A   Clear
3:53 AM 28.9 °F 27.0 °F 92% 30.23 in 2.5 mi Calm Calm - N/A   Clear
4:10 AM 28.4 °F 26.6 °F 93% 30.22 in 3.0 mi Calm Calm - N/A   Clear
4:50 AM 28.4 °F 26.6 °F 93% 30.22 in 1.8 mi Calm Calm - N/A   Clear
4:53 AM 28.9 °F 27.0 °F 92% 30.23 in 1.5 mi Calm Calm - N/A   Clear
5:03 AM 28.4 °F 26.6 °F 93% 30.22 in 0.2 mi Calm Calm - N/A Fog Light Freezing Fog
5:16 AM 28.4 °F 26.6 °F 93% 30.22 in 2.0 mi Calm Calm - N/A   Scattered Clouds
5:22 AM 28.4 °F 24.8 °F 86% 30.22 in 1.5 mi Calm Calm - N/A   Scattered Clouds
5:27 AM 28.4 °F 24.8 °F 86% 30.22 in 0.8 mi Calm Calm - N/A   Mist
5:37 AM 28.4 °F 26.6 °F 93% 30.22 in 1.0 mi Calm Calm - N/A   Clear
5:41 AM 28.4 °F 26.6 °F 93% 30.22 in 3.0 mi Calm Calm - N/A   Clear
5:53 AM 28.9 °F 27.0 °F 92% 30.24 in 4.0 mi Calm Calm - N/A   Clear
6:30 AM 26.6 °F 24.8 °F 93% 30.22 in 2.5 mi Calm Calm - N/A   Clear
6:38 AM 28.4 °F 24.8 °F 86% 30.22 in 3.0 mi Calm Calm - N/A   Clear
6:53 AM 28.0 °F 25.0 °F 88% 30.24 in 5.0 mi Calm Calm - N/A   Clear
7:35 AM 26.6 °F 24.8 °F 93% 30.23 in 2.5 mi Calm Calm - N/A   Clear
7:42 AM 26.6 °F 24.8 °F 93% 30.23 in 2.5 mi Calm Calm - N/A   Partly Cloudy
7:53 AM 27.0 °F 25.0 °F 92% 30.25 in 3.0 mi Calm Calm - N/A   Clear
8:06 AM 28.4 °F 26.6 °F 93% 30.23 in 2.5 mi Calm Calm - N/A   Clear
8:20 AM 30.2 °F 28.4 °F 93% 30.23 in 4.0 mi Calm Calm - N/A   Clear
8:46 AM 33.8 °F 32.0 °F 93% 30.23 in 2.0 mi Calm Calm - N/A   Clear
8:53 AM 35.1 °F 33.1 °F 92% 30.25 in 2.5 mi Calm Calm - N/A   Clear
9:01 AM 37.4 °F 35.6 °F 93% 30.23 in 3.0 mi Calm Calm - N/A   Clear
9:53 AM 45.0 °F 39.0 °F 80% 30.24 in 5.0 mi Calm Calm - N/A   Haze
10:53 AM 52.0 °F 41.0 °F 66% 30.23 in 7.0 mi Calm Calm - N/A   Clear
11:53 AM 62.1 °F 41.0 °F 46% 30.18 in 10.0 mi Calm Calm - N/A   Clear
12:53 PM 64.9 °F 39.9 °F 40% 30.15 in 10.0 mi SSW 11.5 mph 20.7 mph N/A   Clear
1:53 PM 66.0 °F 39.9 °F 38% 30.12 in 10.0 mi Variable 6.9 mph 16.1 mph N/A   Clear
2:53 PM 66.9 °F 39.9 °F 37% 30.10 in 10.0 mi South 8.1 mph 17.3 mph N/A   Clear
3:53 PM 64.9 °F 39.9 °F 40% 30.09 in 10.0 mi Variable 6.9 mph - N/A   Clear
4:53 PM 62.1 °F 39.9 °F 44% 30.09 in 10.0 mi SSW 5.8 mph - N/A   Clear
5:53 PM 57.9 °F 39.9 °F 51% 30.08 in 10.0 mi South 3.5 mph - N/A   Clear
6:53 PM 57.0 °F 39.9 °F 53% 30.07 in 10.0 mi Calm Calm - N/A   Clear
7:53 PM 55.9 °F 41.0 °F 57% 30.06 in 10.0 mi Calm Calm - N/A   Clear
8:53 PM 57.0 °F 41.0 °F 55% 30.06 in 10.0 mi Calm Calm - N/A   Clear
9:53 PM 55.9 °F 41.0 °F 57% 30.05 in 10.0 mi SSW 4.6 mph - N/A   Clear
10:53 PM 51.1 °F 41.0 °F 68% 30.04 in 10.0 mi SW 3.5 mph - N/A   Clear
11:53 PM 54.0 °F 41.0 °F 62% 30.02 in 10.0 mi SW 4.6 mph - N/A   Clear